Hourly Weather Maglie

Today, 3 July, Friday

Time Temperature Precipitation Wind Pressure Humidity
00:00 +28°C° 0 mm 2 mps 749 mmHg 51%
01:00 +28°C° 0 mm 2 mps 749 mmHg 55%
02:00 +27°C° 0 mm 2 mps 749 mmHg 57%
03:00 +27°C° 0 mm 2 mps 748 mmHg 60%
04:00 +26°C° 0 mm 2 mps 748 mmHg 63%
05:00 +28°C° 0 mm 2 mps 748 mmHg 58%
06:00 +29°C° 0 mm 2 mps 749 mmHg 54%
07:00 +31°C° 0 mm 2 mps 749 mmHg 49%
08:00 +34°C° 0 mm 3 mps 749 mmHg 44%
09:00 +35°C° 0 mm 3 mps 749 mmHg 38%
10:00 +37°C° 0 mm 3 mps 749 mmHg 33%
11:00 +37°C° 0 mm 3 mps 749 mmHg 32%
12:00 +38°C° 0 mm 3 mps 749 mmHg 31%
13:00 +38°C° 0 mm 3 mps 750 mmHg 30%
14:00 +38°C° 0 mm 3 mps 749 mmHg 32%
15:00 +37°C° 0 mm 3 mps 749 mmHg 34%
16:00 +36°C° 0 mm 3 mps 748 mmHg 35%
17:00 +35°C° 0 mm 3 mps 749 mmHg 40%
18:00 +34°C° 0 mm 2 mps 749 mmHg 45%
19:00 +31°C° 0 mm 2 mps 749 mmHg 49%
20:00 +31°C° 0 mm 2 mps 749 mmHg 50%
21:00 +30°C° 0 mm 2 mps 749 mmHg 51%
22:00 +30°C° 0 mm 3 mps 750 mmHg 51%
23:00 +30°C° 0 mm 3 mps 750 mmHg 55%

Tomorrow, 4 July, Saturday

Time Temperature Precipitation Wind Pressure Humidity
00:00 +29°C° 0 mm 3 mps 750 mmHg 59%
01:00 +29°C° 0 mm 4 mps 750 mmHg 63%
02:00 +28°C° 0 mm 4 mps 750 mmHg 66%
03:00 +28°C° 0 mm 4 mps 749 mmHg 68%
04:00 +27°C° 0 mm 4 mps 749 mmHg 70%
05:00 +28°C° 0 mm 4 mps 749 mmHg 67%
06:00 +29°C° 0 mm 5 mps 750 mmHg 63%
07:00 +30°C° 0 mm 5 mps 750 mmHg 59%
08:00 +32°C° 0 mm 5 mps 750 mmHg 53%
09:00 +34°C° 0 mm 5 mps 750 mmHg 47%
10:00 +35°C° 0 mm 5 mps 750 mmHg 41%
11:00 +35°C° 0 mm 5 mps 750 mmHg 40%
12:00 +36°C° 0 mm 5 mps 750 mmHg 39%
13:00 +36°C° 0 mm 5 mps 750 mmHg 37%
14:00 +36°C° 0 mm 5 mps 749 mmHg 40%
15:00 +35°C° 0 mm 5 mps 749 mmHg 43%
16:00 +34°C° 0 mm 5 mps 749 mmHg 45%
17:00 +33°C° 0.4 mm 5 mps 749 mmHg 47%
18:00 +30°C° 0.4 mm 5 mps 749 mmHg 48%
19:00 +28°C° 0.4 mm 5 mps 749 mmHg 50%
20:00 +27°C° 0.2 mm 5 mps 749 mmHg 56%
21:00 +27°C° 0.2 mm 6 mps 750 mmHg 62%
22:00 +26°C° 0.2 mm 7 mps 750 mmHg 68%
23:00 +26°C° 0 mm 7 mps 750 mmHg 71%

Day after tomorrow, 5 July, Sunday

Time Temperature Precipitation Wind Pressure Humidity
00:00 +26°C° 0 mm 7 mps 750 mmHg 74%
01:00 +24°C° 0 mm 7 mps 750 mmHg 77%
02:00 +24°C° 0 mm 7 mps 749 mmHg 77%
03:00 +24°C° 0 mm 7 mps 749 mmHg 78%
04:00 +24°C° 0 mm 7 mps 749 mmHg 79%
05:00 +26°C° 0 mm 8 mps 749 mmHg 75%
06:00 +27°C° 0 mm 8 mps 749 mmHg 71%
07:00 +28°C° 0 mm 9 mps 749 mmHg 67%
08:00 +29°C° 0 mm 9 mps 749 mmHg 62%
09:00 +31°C° 0 mm 9 mps 749 mmHg 58%
10:00 +32°C° 0 mm 9 mps 749 mmHg 53%
11:00 +32°C° 0 mm 9 mps 749 mmHg 50%
12:00 +33°C° 0 mm 9 mps 749 mmHg 48%
13:00 +33°C° 0 mm 9 mps 748 mmHg 45%
14:00 +33°C° 0 mm 10 mps 748 mmHg 44%
15:00 +33°C° 0 mm 10 mps 748 mmHg 43%
16:00 +33°C° 0 mm 10 mps 748 mmHg 43%
17:00 +31°C° 0 mm 9 mps 748 mmHg 49%
18:00 +29°C° 0 mm 9 mps 748 mmHg 55%
19:00 +28°C° 0 mm 8 mps 748 mmHg 61%
20:00 +27°C° 0 mm 8 mps 748 mmHg 62%
21:00 +27°C° 0 mm 8 mps 748 mmHg 63%
22:00 +27°C° 0 mm 7 mps 749 mmHg 64%
23:00 +27°C° 0 mm 7 mps 748 mmHg 67%

6 July, Monday

Time Temperature Precipitation Wind Pressure Humidity
00:00 +27°C° 0 mm 7 mps 748 mmHg 69%
01:00 +26°C° 0 mm 7 mps 748 mmHg 71%
02:00 +26°C° 0.1 mm 7 mps 747 mmHg 71%
03:00 +26°C° 0.1 mm 7 mps 747 mmHg 71%
04:00 +26°C° 0.1 mm 7 mps 746 mmHg 72%
05:00 +27°C° 1.1 mm 6 mps 747 mmHg 70%
06:00 +28°C° 1.1 mm 6 mps 747 mmHg 68%
07:00 +28°C° 1.1 mm 5 mps 747 mmHg 67%
08:00 +29°C° 0.2 mm 5 mps 747 mmHg 62%
09:00 +30°C° 0.2 mm 6 mps 747 mmHg 57%
10:00 +32°C° 0.2 mm 6 mps 747 mmHg 52%
11:00 +32°C° 0 mm 7 mps 747 mmHg 49%
12:00 +33°C° 0 mm 8 mps 746 mmHg 47%
13:00 +33°C° 0 mm 8 mps 746 mmHg 45%
14:00 +33°C° 0 mm 8 mps 746 mmHg 46%
15:00 +33°C° 0 mm 8 mps 746 mmHg 47%
16:00 +32°C° 0 mm 8 mps 746 mmHg 47%
17:00 +30°C° 0 mm 7 mps 746 mmHg 53%
18:00 +29°C° 0 mm 7 mps 746 mmHg 58%
19:00 +28°C° 0 mm 6 mps 746 mmHg 63%
20:00 +27°C° 0 mm 5 mps 746 mmHg 66%
21:00 +27°C° 0 mm 4 mps 746 mmHg 69%
22:00 +26°C° 0 mm 4 mps 746 mmHg 72%
23:00 +26°C° 0 mm 4 mps 746 mmHg 73%

7 July, Tuesday

Time Temperature Precipitation Wind Pressure Humidity
00:00 +26°C° 0 mm 5 mps 746 mmHg 74%
01:00 +25°C° 0 mm 5 mps 746 mmHg 75%
02:00 +26°C° 0 mm 6 mps 746 mmHg 74%
03:00 +26°C° 0 mm 6 mps 746 mmHg 74%
04:00 +26°C° 0 mm 7 mps 746 mmHg 73%
05:00 +27°C° 0 mm 8 mps 746 mmHg 69%
06:00 +28°C° 0 mm 8 mps 746 mmHg 65%
07:00 +29°C° 0 mm 8 mps 746 mmHg 61%
08:00 +31°C° 0 mm 9 mps 746 mmHg 58%
09:00 +32°C° 0 mm 9 mps 747 mmHg 55%
10:00 +33°C° 0 mm 9 mps 747 mmHg 53%
11:00 +34°C° 0 mm 8 mps 747 mmHg 49%
12:00 +34°C° 0 mm 8 mps 747 mmHg 46%
13:00 +35°C° 0 mm 7 mps 747 mmHg 43%
14:00 +35°C° 0 mm 7 mps 747 mmHg 42%
15:00 +35°C° 0 mm 7 mps 747 mmHg 41%
16:00 +35°C° 0 mm 8 mps 747 mmHg 40%
17:00 +33°C° 0 mm 8 mps 747 mmHg 46%
18:00 +32°C° 0 mm 8 mps 748 mmHg 51%
19:00 +29°C° 0 mm 8 mps 748 mmHg 56%
20:00 +29°C° 0 mm 8 mps 748 mmHg 57%
21:00 +28°C° 0 mm 9 mps 749 mmHg 58%
22:00 +27°C° 0 mm 9 mps 749 mmHg 59%
23:00 +27°C° 0 mm 9 mps 749 mmHg 61%

8 July, Wednesday

Time Temperature Precipitation Wind Pressure Humidity
00:00 +26°C° 0 mm 9 mps 750 mmHg 64%
01:00 +26°C° 0 mm 9 mps 750 mmHg 66%
02:00 +26°C° 0 mm 9 mps 750 mmHg 67%
03:00 +26°C° 0 mm 9 mps 750 mmHg 68%
04:00 +24°C° 0 mm 9 mps 750 mmHg 69%
05:00 +26°C° 0 mm 9 mps 750 mmHg 66%
06:00 +27°C° 0 mm 9 mps 751 mmHg 63%
07:00 +28°C° 0 mm 9 mps 751 mmHg 61%
08:00 +29°C° 0 mm 9 mps 751 mmHg 57%
09:00 +31°C° 0 mm 9 mps 751 mmHg 53%
10:00 +32°C° 0 mm 9 mps 752 mmHg 50%
11:00 +32°C° 0 mm 9 mps 752 mmHg 49%
12:00 +32°C° 0 mm 9 mps 752 mmHg 47%
13:00 +32°C° 0 mm 9 mps 752 mmHg 46%
14:00 +32°C° 0 mm 8 mps 751 mmHg 46%
15:00 +32°C° 0 mm 8 mps 751 mmHg 46%
16:00 +32°C° 0 mm 8 mps 751 mmHg 46%
17:00 +29°C° 0 mm 8 mps 751 mmHg 50%
18:00 +28°C° 0 mm 8 mps 751 mmHg 53%
19:00 +27°C° 0 mm 8 mps 751 mmHg 57%
20:00 +26°C° 0 mm 7 mps 752 mmHg 63%
21:00 +26°C° 0 mm 7 mps 752 mmHg 68%
22:00 +24°C° 0 mm 7 mps 752 mmHg 74%
23:00 +24°C° 0 mm 7 mps 752 mmHg 74%
Show more